When you browse on this site, cookies collect data to enhance your experience and personalize the content and advertising you see.
Visit our Privacy Policy to learn more. By continuing to use the site, you agree to this use of cookies and data.
  • In Switzerland
  • List of Countries
  • For 7 days
  • Water Temperature
  • Satellite Maps
  • Weather Map
  • Weather Widgets
  • user-avatar
    Login

    Hourly Weather Ahwaz

    Today, 11 December, Tuesday

    Time Temperature Precipitation Wind Pressure Humidity
    00:00 +18°C° 0 mm 3 mps 763 mmHg 54%
    01:00 +17°C° 0 mm 3 mps 763 mmHg 55%
    02:00 +17°C° 0 mm 3 mps 763 mmHg 57%
    03:00 +17°C° 0 mm 3 mps 763 mmHg 58%
    04:00 +16°C° 0 mm 3 mps 763 mmHg 59%
    05:00 +16°C° 0 mm 3 mps 763 mmHg 60%
    06:00 +16°C° 0 mm 3 mps 764 mmHg 61%
    07:00 +16°C° 0 mm 3 mps 764 mmHg 57%
    08:00 +17°C° 0 mm 4 mps 764 mmHg 53%
    09:00 +18°C° 0 mm 4 mps 764 mmHg 50%
    10:00 +19°C° 0 mm 4 mps 764 mmHg 45%
    11:00 +21°C° 0 mm 4 mps 764 mmHg 40%
    12:00 +22°C° 0 mm 4 mps 764 mmHg 35%
    13:00 +22°C° 0 mm 4 mps 764 mmHg 33%
    14:00 +22°C° 0 mm 4 mps 763 mmHg 32%
    15:00 +23°C° 0 mm 4 mps 763 mmHg 30%
    16:00 +22°C° 0 mm 4 mps 763 mmHg 33%
    17:00 +21°C° 0 mm 4 mps 764 mmHg 36%
    18:00 +20°C° 0 mm 3 mps 764 mmHg 39%
    19:00 +19°C° 0 mm 3 mps 764 mmHg 41%
    20:00 +19°C° 0 mm 3 mps 764 mmHg 42%
    21:00 +18°C° 0 mm 3 mps 764 mmHg 44%
    22:00 +18°C° 0 mm 3 mps 764 mmHg 46%
    23:00 +18°C° 0 mm 3 mps 764 mmHg 48%

    Tomorrow, 12 December, Wednesday

    Time Temperature Precipitation Wind Pressure Humidity
    00:00 +17°C° 0 mm 3 mps 764 mmHg 50%
    01:00 +17°C° 0 mm 3 mps 764 mmHg 51%
    02:00 +16°C° 0 mm 3 mps 764 mmHg 53%
    03:00 +16°C° 0 mm 3 mps 764 mmHg 54%
    04:00 +16°C° 0 mm 3 mps 764 mmHg 55%
    05:00 +14°C° 0 mm 3 mps 764 mmHg 56%
    06:00 +14°C° 0 mm 3 mps 764 mmHg 57%
    07:00 +16°C° 0 mm 3 mps 764 mmHg 53%
    08:00 +17°C° 0 mm 3 mps 765 mmHg 50%
    09:00 +18°C° 0 mm 3 mps 765 mmHg 46%
    10:00 +19°C° 0 mm 4 mps 764 mmHg 41%
    11:00 +21°C° 0 mm 4 mps 764 mmHg 36%
    12:00 +22°C° 0 mm 4 mps 764 mmHg 31%
    13:00 +22°C° 0 mm 3 mps 764 mmHg 30%
    14:00 +24°C° 0 mm 3 mps 763 mmHg 28%
    15:00 +24°C° 0 mm 3 mps 763 mmHg 27%
    16:00 +22°C° 0 mm 3 mps 763 mmHg 30%
    17:00 +21°C° 0 mm 2 mps 763 mmHg 33%
    18:00 +20°C° 0 mm 2 mps 763 mmHg 36%
    19:00 +20°C° 0 mm 2 mps 764 mmHg 38%
    20:00 +19°C° 0 mm 2 mps 764 mmHg 39%
    21:00 +19°C° 0 mm 2 mps 764 mmHg 40%
    22:00 +19°C° 0 mm 1 mps 764 mmHg 42%
    23:00 +19°C° 0 mm 1 mps 764 mmHg 43%

    Day after tomorrow, 13 December, Thursday

    Time Temperature Precipitation Wind Pressure Humidity
    00:00 +18°C° 0 mm 1 mps 764 mmHg 44%
    01:00 +18°C° 0 mm 1 mps 764 mmHg 45%
    02:00 +18°C° 0 mm 1 mps 764 mmHg 46%
    03:00 +16°C° 0 mm 1 mps 764 mmHg 47%
    04:00 +16°C° 0 mm 1 mps 764 mmHg 48%
    05:00 +16°C° 0 mm 1 mps 764 mmHg 49%
    06:00 +15°C° 0 mm 1 mps 764 mmHg 50%
    07:00 +18°C° 0 mm 1 mps 765 mmHg 45%
    08:00 +17°C° 0 mm 0 mps 765 mmHg 40%
    09:00 +19°C° 0 mm 0 mps 765 mmHg 35%
    10:00 +22°C° 0 mm 1 mps 765 mmHg 33%
    11:00 +23°C° 0 mm 1 mps 765 mmHg 31%
    12:00 +23°C° 0 mm 1 mps 765 mmHg 30%
    13:00 +24°C° 0 mm 1 mps 764 mmHg 29%
    14:00 +24°C° 0 mm 1 mps 764 mmHg 28%
    15:00 +25°C° 0 mm 2 mps 764 mmHg 27%
    16:00 +24°C° 0 mm 1 mps 764 mmHg 30%
    17:00 +23°C° 0 mm 1 mps 764 mmHg 34%
    18:00 +22°C° 0 mm 1 mps 765 mmHg 37%
    19:00 +21°C° 0 mm 1 mps 765 mmHg 38%
    20:00 +21°C° 0 mm 1 mps 765 mmHg 39%
    21:00 +20°C° 0 mm 1 mps 765 mmHg 40%
    22:00 +20°C° 0 mm 1 mps 765 mmHg 40%
    23:00 +19°C° 0 mm 1 mps 765 mmHg 40%

    14 December, Friday

    Time Temperature Precipitation Wind Pressure Humidity
    00:00 +19°C° 0 mm 1 mps 765 mmHg 40%
    01:00 +19°C° 0 mm 1 mps 765 mmHg 39%
    02:00 +19°C° 0 mm 1 mps 765 mmHg 37%
    03:00 +18°C° 0 mm 2 mps 765 mmHg 36%
    04:00 +18°C° 0 mm 2 mps 765 mmHg 36%
    05:00 +18°C° 0 mm 2 mps 765 mmHg 36%
    06:00 +18°C° 0 mm 2 mps 765 mmHg 36%
    07:00 +19°C° 0 mm 2 mps 765 mmHg 33%
    08:00 +20°C° 0 mm 2 mps 765 mmHg 31%
    09:00 +21°C° 0 mm 2 mps 766 mmHg 29%
    10:00 +23°C° 0 mm 2 mps 765 mmHg 29%
    11:00 +24°C° 0 mm 3 mps 765 mmHg 29%
    12:00 +26°C° 0 mm 3 mps 765 mmHg 29%
    13:00 +26°C° 0 mm 3 mps 764 mmHg 30%
    14:00 +26°C° 0 mm 3 mps 764 mmHg 31%
    15:00 +26°C° 0 mm 3 mps 764 mmHg 33%
    16:00 +25°C° 0 mm 3 mps 764 mmHg 36%
    17:00 +24°C° 0 mm 3 mps 764 mmHg 39%
    18:00 +24°C° 0 mm 2 mps 764 mmHg 42%
    19:00 +23°C° 0 mm 2 mps 765 mmHg 43%
    20:00 +22°C° 0 mm 3 mps 765 mmHg 44%
    21:00 +21°C° 0 mm 3 mps 765 mmHg 46%
    22:00 +21°C° 0 mm 3 mps 765 mmHg 47%
    23:00 +20°C° 0 mm 3 mps 765 mmHg 48%

    15 December, Saturday

    Time Temperature Precipitation Wind Pressure Humidity
    00:00 +20°C° 0 mm 3 mps 765 mmHg 49%
    01:00 +20°C° 0 mm 3 mps 765 mmHg 50%
    02:00 +19°C° 0 mm 3 mps 765 mmHg 51%
    03:00 +19°C° 0 mm 3 mps 765 mmHg 52%
    04:00 +18°C° 0 mm 3 mps 765 mmHg 53%
    05:00 +18°C° 0 mm 3 mps 765 mmHg 53%
    06:00 +18°C° 0 mm 3 mps 765 mmHg 54%
    07:00 +18°C° 0 mm 3 mps 766 mmHg 51%
    08:00 +19°C° 0 mm 3 mps 766 mmHg 48%
    09:00 +20°C° 0 mm 3 mps 766 mmHg 45%
    10:00 +21°C° 0 mm 4 mps 766 mmHg 40%
    11:00 +22°C° 0 mm 4 mps 766 mmHg 36%
    12:00 +23°C° 0 mm 4 mps 765 mmHg 32%
    13:00 +23°C° 0 mm 4 mps 765 mmHg 31%
    14:00 +25°C° 0 mm 4 mps 765 mmHg 29%
    15:00 +25°C° 0 mm 4 mps 765 mmHg 28%
    16:00 +23°C° 0 mm 4 mps 765 mmHg 30%
    17:00 +22°C° 0 mm 3 mps 765 mmHg 32%
    18:00 +21°C° 0 mm 3 mps 765 mmHg 33%
    19:00 +20°C° 0 mm 3 mps 766 mmHg 35%
    20:00 +20°C° 0 mm 3 mps 766 mmHg 36%
    21:00 +19°C° 0 mm 3 mps 766 mmHg 37%
    22:00 +18°C° 0 mm 3 mps 766 mmHg 39%
    23:00 +18°C° 0 mm 3 mps 766 mmHg 41%

    16 December, Sunday

    Time Temperature Precipitation Wind Pressure Humidity
    00:00 +17°C° 0 mm 3 mps 766 mmHg 43%
    01:00 +17°C° 0 mm 3 mps 766 mmHg 44%
    02:00 +17°C° 0 mm 2 mps 766 mmHg 46%
    03:00 +16°C° 0 mm 2 mps 766 mmHg 47%
    04:00 +16°C° 0 mm 2 mps 766 mmHg 48%
    05:00 +16°C° 0 mm 2 mps 766 mmHg 49%
    06:00 +15°C° 0 mm 2 mps 766 mmHg 50%
    07:00 +16°C° 0 mm 2 mps 767 mmHg 46%
    08:00 +18°C° 0 mm 1 mps 767 mmHg 43%
    09:00 +19°C° 0 mm 1 mps 767 mmHg 40%
    10:00 +20°C° 0 mm 1 mps 767 mmHg 36%
    11:00 +21°C° 0 mm 1 mps 767 mmHg 32%
    12:00 +22°C° 0 mm 1 mps 766 mmHg 28%
    13:00 +23°C° 0 mm 1 mps 766 mmHg 26%
    14:00 +23°C° 0 mm 1 mps 765 mmHg 24%
    15:00 +24°C° 0 mm 1 mps 765 mmHg 23%
    16:00 +23°C° 0 mm 1 mps 765 mmHg 27%
    17:00 +20°C° 0 mm 0 mps 766 mmHg 31%
    18:00 +19°C° 0 mm 0 mps 766 mmHg 35%
    19:00 +18°C° 0 mm 0 mps 766 mmHg 35%
    20:00 +18°C° 0 mm 0 mps 766 mmHg 36%
    21:00 +18°C° 0 mm 0 mps 766 mmHg 36%
    22:00 +19°C° 0 mm 1 mps 766 mmHg 36%
    23:00 +19°C° 0 mm 1 mps 766 mmHg 36%
    Show more